Home > Weather > Hartford > Past weeks

Flag for U.S.A. Weather for the Past 2 Weeks in Hartford, Connecticut, U.S.A.

Now
7 °F

Light snow. Sunny.


Feels Like: -7 °F
Forecast: -5 / 12 °F
Wind: 9 mph from Northwest

Location: Hartford-Brainard Airport

Current Time: Feb 14, 2016 at 2:04:46 PM

Latest Report: Feb 14, 2016 at 12:53 PM


Visibility: 10 mi

Pressure: 30.47 "Hg

Humidity: 32%

Dew point: -17 °F

Location of HartfordLocation

Historic Weather in Hartford — Graph

°F

Hartford Temperature Yesterday

Maximum temperature yesterday: 21 °F (at 9:53 AM)
Minimum temperature yesterday: -2 °F (at 11:53 PM)
Average temperature yesterday: 13 °F

High & Low Weather Summary for the Past Weeks

 TemperatureHumidityPressure
High62 °F (Feb 1, 11:53 AM)96% (Feb 5, 5:53 AM)30.50 "Hg (Feb 5, 5:53 AM)
Low-9 °F (Feb 14, 6:53 AM)32% (Feb 11, 12:53 PM)29.56 "Hg (Feb 10, 1:53 PM)
Average32 °F65%29.99 "Hg
* Reported Jan 30 12:53 PM — Feb 14 12:53 PM, Hartford, Weather by CustomWeather, © 2016

Note: Actual official high and low records may vary slightly from our data, if they occured in-between our weather recording intervals... More about our weather records

Advertising

Hartford Weather History for the Previous 24 Hours

 ConditionsComfort  
Time TempWeatherWind HumidityBarometerVisibility
12:53 PM
Sun, Feb 14
7 °FLight snow. Sunny.9 mph32%30.47 "Hg10 mi
11:53 AM4 °FLight snow. Sunny.7 mph36%30.49 "Hg9 mi
10:53 AM0 °FSunny.5 mph40%30.50 "Hg10 mi
9:53 AM-3 °FSunny.6 mph41%30.49 "Hg10 mi
8:53 AM-6 °FSunny.9 mph42%30.49 "Hg10 mi
7:53 AM-8 °FSunny.8 mph42%30.47 "Hg10 mi
6:53 AM-9 °FSunny.9 mph47%30.45 "Hg10 mi
5:53 AM-8 °FClear.10 mph44%30.41 "Hg10 mi
4:53 AM-7 °FClear.9 mph40%30.38 "Hg10 mi
3:53 AM-7 °FClear.6 mph42%30.36 "Hg10 mi
2:53 AM-6 °FClear.8 mph42%30.33 "Hg10 mi
1:53 AM-5 °FClear.14 mph40%30.32 "Hg10 mi
12:53 AM-4 °FClear.13 mph38%30.31 "Hg10 mi
11:53 PM
Sat, Feb 13
-2 °FClear.12 mph39%30.28 "Hg10 mi
10:53 PM-1 °FClear.15 mph43%30.26 "Hg10 mi
9:53 PM1 °FPassing clouds.12 mph44%30.26 "Hg10 mi
8:53 PM2 °FClear.12 mph46%30.25 "Hg10 mi
7:53 PM2 °FClear.14 mph38%30.25 "Hg10 mi
6:53 PM3 °FPassing clouds.14 mph38%30.23 "Hg10 mi
5:53 PM6 °FPassing clouds.16 mph35%30.19 "Hg10 mi
4:53 PM8 °FSunny.16 mph35%30.14 "Hg10 mi
3:53 PM11 °FSunny.15 mphN/A30.09 "Hg10 mi
2:53 PM14 °FPassing clouds.18 mph35%30.03 "Hg10 mi
Weather by CustomWeather, © 2016

See weather overviewHow to use our weather pages